Dewpoint
69 71 73 75 75 75 75 75 75 75 75 75 75 75 75 75 74 74 74 74 74 74 74 74 74 73 73 73 72 72 72 72 71 71 70 70 70 70 70 71 70 70 69 69 69 69 71 72 72 71 71 71 71 71 71 71 70 70 69 69 69 69 68 67 66 68 68 67 67 67 67 67 65 65 66 66 66 65 66 66 65 62 62 63 63
68 72 74 74 75 74 74 74 74 74 74 75 75 75 75 74 74 74 74 74 74 74 74 73 73 73 73 72 72 72 72 71 71 70 70 70 70 70 70 70 70 70 69 69 69 69 70 71 71 70 71 71 70 71 70 70 70 69 68 67 67 66 66 65 65 68 68 68 68 67 67 66 67 66 65 65 65 66 65 66 65 62 63 64 64
70 72 74 74 75 75 74 74 74 74 74 74 75 75 74 74 74 74 74 74 74 73 73 73 73 72 72 72 71 71 71 71 71 70 70 70 70 70 70 70 69 69 69 68 68 70 70 71 71 71 71 71 71 70 70 69 68 67 66 66 65 65 65 65 64 65 68 69 68 68 66 66 66 65 64 64 66 65 64 64 63 63 62 63 63
71 72 74 75 75 74 74 74 74 74 74 74 74 74 74 74 74 74 74 74 74 73 73 73 73 72 72 72 72 71 71 71 70 70 70 70 69 69 70 69 69 68 67 67 69 70 71 71 71 71 71 71 71 70 69 69 68 67 65 65 65 65 64 64 66 67 69 68 68 67 66 64 64 65 65 66 66 65 64 64 64 63 63 63 63
71 72 74 74 73 74 74 74 74 74 74 74 74 74 74 74 74 74 74 74 74 73 73 73 73 72 72 71 71 71 71 70 69 69 70 70 69 69 69 69 68 67 68 68 69 70 71 71 71 71 71 71 71 70 69 69 68 67 67 66 65 65 65 65 65 66 68 69 68 67 64 62 63 65 65 65 65 64 63 62 62 62 62 62 63
71 72 73 73 72 73 74 74 74 74 74 74 74 74 74 74 73 74 73 73 73 73 72 72 72 72 71 71 70 70 70 69 69 69 69 68 68 69 69 68 67 67 68 69 69 70 71 71 71 71 72 71 70 70 69 69 68 67 66 65 65 65 65 65 65 66 67 69 69 67 61 61 62 64 66 66 65 64 63 62 62 61 62 62 62
71 71 71 72 72 73 74 74 74 74 74 74 73 73 73 73 73 73 73 73 73 72 72 72 71 71 71 70 70 69 69 69 69 69 69 69 68 68 67 66 66 66 67 70 70 70 70 71 70 70 71 70 70 69 69 69 68 67 67 66 66 66 66 66 66 65 67 67 66 66 62 61 62 63 66 66 65 64 62 61 61 62 61 63 62
71 71 70 71 73 74 74 74 74 74 74 73 73 73 73 73 73 73 73 73 72 72 72 72 71 71 71 70 69 69 68 69 69 70 70 68 67 67 67 69 70 70 70 70 70 70 70 70 70 70 70 70 70 69 69 68 68 68 67 67 66 67 66 67 66 65 65 64 63 64 64 61 61 63 66 65 65 65 64 62 62 63 63 63 61
71 70 70 71 73 74 74 74 74 74 73 73 73 73 73 73 73 73 73 73 72 72 72 72 71 71 70 69 69 68 68 69 69 68 68 67 67 66 68 70 69 69 70 70 70 70 70 71 70 71 71 70 70 69 69 69 68 68 68 67 67 67 68 68 67 67 66 63 61 60 57 60 62 63 66 65 65 65 64 62 63 63 63 61 60
71 72 71 72 73 75 74 74 74 73 73 73 73 73 73 72 73 72 72 72 72 72 72 71 71 70 69 69 68 68 68 67 68 67 67 67 67 68 70 70 70 70 70 70 70 69 70 70 70 70 70 69 70 69 69 69 69 68 68 67 67 68 68 68 68 68 64 61 61 52 62 65 62 63 65 66 66 66 64 64 63 63 61 59 59
71 72 72 72 73 75 74 74 74 73 73 73 73 73 72 72 72 72 72 72 72 71 71 71 70 70 69 68 68 68 67 67 67 67 67 67 67 70 70 71 70 70 69 69 70 70 69 69 70 69 69 70 69 69 69 69 68 68 67 67 67 67 67 68 68 65 64 62 59 51 61 67 62 64 67 66 66 66 65 63 63 62 60 58 60
71 72 71 73 75 75 74 74 74 74 73 73 73 73 72 72 72 72 72 71 71 71 71 71 70 70 69 69 69 69 69 68 68 68 68 67 69 70 70 70 70 70 70 70 70 69 70 70 69 68 69 70 69 68 68 68 68 67 66 67 67 67 68 69 67 64 64 57 53 53 53 62 63 65 67 66 66 66 63 61 61 61 60 59 60
72 71 73 73 74 75 75 74 74 74 73 73 73 73 73 72 72 72 72 71 71 71 71 70 70 69 69 69 69 69 69 69 68 68 69 69 69 69 70 70 70 70 69 69 69 69 69 69 69 69 69 69 69 68 68 68 68 67 68 68 68 69 68 69 67 65 64 59 58 55 61 62 63 68 67 66 66 65 63 62 62 62 60 59 59
72 72 71 72 73 75 75 74 74 74 74 74 73 73 73 72 72 72 72 71 71 71 71 70 70 69 69 69 69 69 69 69 69 69 69 68 68 69 70 70 70 70 69 69 69 69 69 69 69 69 69 69 69 68 68 68 68 69 68 68 69 68 69 69 68 66 65 60 62 56 62 64 65 68 67 66 65 64 63 62 62 62 61 59 57
71 71 71 72 73 74 75 74 74 74 74 74 74 73 73 73 72 72 72 72 71 71 71 70 70 70 70 69 69 69 69 69 69 69 69 68 69 70 70 70 70 70 69 69 69 69 69 69 69 69 69 68 69 69 68 68 69 69 69 69 69 69 69 67 66 64 61 59 59 57 62 63 68 67 67 66 65 64 63 62 62 60 61 60 58
72 71 71 71 71 73 73 75 74 74 74 74 74 74 73 73 72 72 72 72 71 71 71 71 70 70 69 69 69 69 68 69 69 69 68 68 68 68 69 70 69 70 70 69 69 69 68 69 69 69 69 68 69 68 69 68 69 69 69 69 69 69 68 68 65 64 63 64 59 59 65 66 69 67 67 66 65 64 64 63 62 60 60 62 60
72 72 70 69 71 71 72 72 73 74 74 74 74 73 73 73 72 72 72 72 71 71 71 71 70 70 69 69 69 69 68 68 69 68 68 68 68 68 67 69 70 70 69 69 69 69 68 68 69 69 69 69 69 68 68 68 69 69 69 69 69 68 68 68 65 63 64 64 58 64 65 66 68 68 67 66 65 64 63 62 62 61 60 61 61
72 71 69 69 69 69 71 71 73 73 73 73 74 74 73 73 73 72 72 72 71 71 71 71 70 70 70 69 69 69 68 68 68 68 68 68 68 68 67 67 69 69 69 69 69 69 69 69 68 69 69 68 68 68 69 69 69 69 69 69 68 68 68 69 65 63 63 61 61 65 65 68 68 68 67 66 65 65 63 62 62 61 62 62 61
71 70 69 68 68 68 69 70 71 70 72 72 73 73 73 73 73 72 72 72 72 71 71 71 70 70 70 69 69 69 69 68 68 68 68 68 68 68 68 67 67 67 69 69 69 69 69 69 69 69 69 69 69 69 68 68 68 69 69 69 69 69 69 68 64 61 62 69 64 65 67 69 69 68 67 66 65 65 63 62 62 61 61 62 61
70 70 69 68 68 69 69 69 69 68 70 71 72 72 73 73 73 72 72 72 72 71 71 71 70 70 70 70 69 69 69 68 68 67 68 67 68 67 68 67 67 67 68 69 69 69 69 69 69 69 69 69 69 68 68 68 69 69 70 70 69 69 67 64 61 60 67 65 65 65 69 70 69 68 68 67 66 64 63 62 62 61 61 62 62
70 69 68 68 69 69 69 68 67 68 70 71 71 72 71 73 72 72 72 72 71 72 71 71 71 70 70 70 70 70 71 70 69 68 68 67 68 68 68 68 67 67 67 68 69 68 69 69 69 69 69 69 69 69 68 69 69 69 70 70 70 67 63 61 59 63 68 67 66 66 70 70 69 69 68 68 66 65 63 62 62 61 61 62 60
67 66 68 69 69 69 67 65 67 68 69 71 71 72 72 72 71 71 71 71 71 71 71 70 71 70 70 69 70 71 71 71 70 70 69 68 68 69 68 68 68 68 67 68 68 68 68 69 69 70 69 69 69 68 68 69 69 70 70 70 68 64 61 59 58 63 63 65 66 69 70 70 69 69 68 68 67 64 63 62 63 61 61 61 60
65 65 67 70 69 67 66 64 64 66 69 70 70 71 72 72 71 71 70 71 72 71 71 71 70 69 69 69 71 71 70 70 71 71 69 69 68 69 69 68 69 68 68 67 68 68 67 68 69 69 69 69 69 68 66 64 66 70 70 68 65 63 59 58 62 63 62 65 66 70 70 70 69 69 68 68 67 65 62 62 63 62 62 60 61
65 65 66 69 67 67 65 67 67 67 70 70 70 71 71 71 71 71 71 72 72 71 71 71 70 70 68 70 71 71 71 73 70 70 68 69 69 69 69 69 68 68 68 67 68 68 68 68 68 68 68 67 66 65 63 63 61 65 65 64 62 60 57 57 59 61 64 64 66 71 71 70 70 69 68 68 67 66 63 62 63 62 62 62 60
66 66 66 69 68 69 71 68 69 69 68 69 70 70 71 71 70 71 70 71 71 71 71 71 71 70 69 70 68 71 70 70 71 71 70 70 69 68 68 68 68 68 69 67 67 66 67 65 65 67 66 65 63 63 62 59 61 60 61 60 59 57 56 59 60 63 64 67 68 71 71 71 70 69 68 68 66 68 64 63 63 62 63 62 61
67 64 65 68 70 71 71 70 70 68 69 69 69 70 71 70 70 70 71 71 71 71 71 71 70 71 70 69 72 71 73 71 70 70 70 70 69 68 69 68 67 67 68 67 66 67 66 64 62 64 65 63 62 62 61 60 60 66 61 61 59 57 59 60 58 66 65 67 69 71 71 71 70 69 68 67 67 65 64 64 63 62 62 62 61
65 65 66 67 70 71 71 70 69 68 70 70 69 69 70 72 71 71 70 70 71 71 72 72 72 71 72 72 73 71 73 72 73 71 70 71 71 71 68 68 69 69 70 69 67 69 67 66 64 65 64 62 60 59 58 58 60 56 58 58 57 57 59 58 61 65 67 67 69 71 71 71 70 69 69 68 66 64 64 64 63 62 63 62 60
65 66 65 68 70 71 72 71 71 69 71 70 69 68 69 72 73 73 71 71 70 70 72 73 73 75 72 72 73 72 71 69 69 71 73 71 70 70 70 71 68 69 71 69 69 69 69 67 66 63 63 60 58 55 55 55 57 57 55 59 55 55 59 61 61 65 65 66 67 71 71 71 71 70 69 69 67 65 65 64 64 64 63 62 60
67 66 66 69 70 71 72 71 72 70 70 72 69 69 68 70 70 71 71 71 71 71 70 70 70 70 71 71 72 72 69 72 71 70 71 71 71 72 71 70 70 70 68 69 67 69 69 66 66 64 65 64 63 63 63 62 61 60 55 52 51 56 58 60 65 63 68 69 68 67 71 71 71 70 70 69 68 66 66 66 64 64 64 63 62
67 68 68 69 71 72 71 71 72 71 72 72 71 72 71 70 69 71 74 73 73 72 74 73 74 72 72 72 71 73 73 73 71 72 70 72 71 71 71 71 70 69 71 69 68 68 68 67 67 65 63 66 67 65 66 64 64 60 54 52 54 51 59 59 57 60 65 69 66 67 72 72 71 70 70 69 68 67 66 66 66 64 64 64 62
69 68 68 68 71 72 72 72 72 73 72 72 71 71 72 72 72 70 71 71 72 72 73 74 74 73 72 72 71 72 75 73 72 73 73 71 72 71 72 71 70 69 71 68 68 66 70 70 67 69 69 69 70 68 66 66 65 62 61 58 53 55 54 57 58 61 68 66 64 67 69 72 71 70 70 69 69 68 67 67 67 65 64 64 63
69 68 67 69 71 72 71 72 72 72 72 72 72 71 71 70 71 71 71 71 73 74 73 73 73 73 72 73 74 73 73 73 72 71 72 72 71 72 72 71 71 71 71 68 69 67 70 69 69 69 69 69 68 68 67 67 66 65 64 62 60 57 54 55 56 61 65 66 68 66 66 69 71 71 71 70 70 69 68 67 67 66 65 65 64
66 70 69 70 71 72 72 72 72 72 72 72 72 72 73 71 71 72 72 72 73 73 72 72 72 71 74 74 74 72 74 72 72 72 70 72 72 72 69 69 72 72 71 69 67 70 70 70 69 70 69 69 68 67 67 69 68 67 66 64 62 59 58 55 57 57 60 61 66 65 67 67 69 71 71 71 70 70 68 68 67 67 66 65 65
64 67 70 70 71 71 72 72 73 72 72 73 72 72 74 73 73 73 72 74 75 73 73 75 74 72 72 73 73 73 72 74 72 72 72 71 71 71 70 70 71 71 70 69 69 70 68 68 69 69 67 69 67 67 68 67 66 67 66 65 64 63 61 58 57 57 62 62 63 66 64 68 68 69 70 71 70 70 69 69 68 67 67 66 65
66 68 69 70 71 71 72 72 72 72 72 72 73 72 73 73 73 74 72 72 73 73 74 74 73 72 72 74 73 73 73 72 72 72 70 71 72 72 72 70 70 70 70 70 70 70 69 68 69 68 69 69 67 67 68 66 66 67 68 67 65 65 65 63 61 58 58 61 66 65 65 69 68 68 68 68 70 70 70 69 69 68 68 67 65
68 68 70 70 70 71 72 71 72 72 72 72 72 72 72 75 73 71 73 73 73 72 74 73 73 73 74 73 73 73 73 73 73 72 72 70 70 71 71 72 71 70 70 70 69 69 68 69 69 69 67 67 68 66 67 66 66 67 68 67 66 66 65 65 63 60 59 62 65 65 67 66 68 68 68 67 68 70 70 70 69 69 69 68 67
68 69 69 70 70 70 71 71 72 71 71 71 72 71 73 72 72 71 72 73 74 73 73 74 74 72 73 73 74 71 73 73 73 72 74 72 72 72 71 70 71 70 70 70 70 70 68 66 68 68 68 65 65 66 67 67 67 66 67 67 67 68 66 65 65 63 61 58 57 65 64 64 67 71 68 67 67 67 70 70 70 69 69 69 68
68 69 69 69 69 70 70 71 71 72 72 72 72 72 72 72 71 72 71 72 73 72 74 72 72 73 73 72 73 73 73 73 74 72 73 72 71 71 71 71 70 71 71 70 70 69 68 68 67 67 68 67 66 65 66 66 66 65 66 67 68 68 68 68 66 66 62 59 56 57 64 65 68 68 68 68 67 67 67 69 70 70 69 69 69
68 69 70 69 69 70 70 71 71 71 71 72 71 71 72 72 72 72 71 71 72 72 74 72 73 74 72 73 73 74 74 73 72 73 73 72 71 71 70 70 70 71 71 70 69 68 68 68 67 66 66 67 67 65 65 66 67 66 65 66 68 68 68 68 68 67 64 62 59 57 56 65 65 68 68 68 69 69 68 67 68 68 68 70 69
69 69 69 69 69 69 69 70 71 71 71 71 70 69 69 69 68 70 69 70 70 70 71 71 72 71 70 72 72 73 72 73 72 73 72 73 72 70 70 70 71 70 70 69 68 69 69 66 66 65 65 66 66 66 65 67 67 65 64 65 67 68 67 67 66 65 64 62 60 57 55 59 66 69 66 67 68 68 68 67 66 66 65 68 70
68 68 68 68 68 67 69 69 70 71 70 69 68 68 68 67 69 69 70 71 69 69 70 71 70 71 71 69 71 71 71 71 72 71 72 72 72 72 71 70 69 71 69 67 68 68 68 67 66 67 65 64 64 65 66 67 65 64 64 64 65 67 67 67 66 65 64 64 61 59 58 61 64 64 64 66 68 69 69 69 66 65 64 63 68
67 68 67 67 68 69 69 69 70 70 71 70 70 71 71 69 68 67 68 69 71 69 69 68 68 69 70 71 71 70 70 70 71 72 72 72 71 70 70 70 70 70 68 68 68 69 67 67 67 66 66 65 63 64 68 65 64 62 62 63 64 65 65 65 65 64 64 64 63 62 61 60 60 65 69 68 68 69 68 68 68 67 65 64 67
66 66 67 67 68 68 68 69 69 69 69 69 70 69 70 69 69 67 68 68 66 68 68 68 69 71 70 69 70 71 70 70 69 69 70 71 71 71 70 71 70 70 69 68 69 68 67 66 66 65 65 65 65 65 67 65 63 64 65 62 60 60 62 65 66 65 64 65 64 62 61 58 57 61 65 68 69 69 68 68 69 68 67 66 67
65 65 66 66 66 67 68 68 68 68 68 68 68 69 68 68 69 70 66 65 66 65 69 68 69 69 70 69 68 69 69 69 68 68 69 69 70 70 71 71 70 69 69 68 68 68 67 67 66 66 66 64 64 64 66 67 65 64 60 61 62 61 57 59 61 64 65 64 64 63 60 58 58 58 65 67 68 69 68 68 68 68 69 68 67
64 64 65 65 65 65 66 66 67 67 67 68 67 66 67 66 68 68 67 68 66 68 65 62 62 64 64 63 65 64 63 64 65 64 63 66 68 69 69 68 69 70 70 68 68 68 68 68 67 67 66 65 64 65 66 67 66 66 63 61 60 59 58 60 61 62 64 63 62 63 61 60 59 61 65 65 67 69 68 68 67 68 69 69 69
62 63 64 64 65 65 65 65 65 66 66 66 67 68 70 68 67 66 65 64 61 63 61 59 58 60 58 61 60 58 59 60 59 59 58 61 64 64 67 68 68 69 69 69 69 68 68 68 67 67 66 67 65 64 64 66 66 65 66 64 62 59 61 63 60 58 66 65 64 64 62 60 58 58 64 64 66 66 68 67 67 68 68 67 68
61 63 64 63 63 62 61 61 61 62 61 62 62 62 62 61 62 60 60 61 60 59 65 65 62 60 62 63 61 60 59 58 61 58 56 56 58 62 61 62 63 65 67 68 68 67 68 67 67 67 68 66 65 63 63 64 65 66 65 65 66 66 66 63 59 60 57 61 64 63 63 62 60 57 60 65 64 66 67 68 68 69 67 67 67
59 59 59 59 58 58 57 57 58 59 61 62 62 63 60 60 60 59 59 58 59 58 60 62 62 64 63 63 60 61 60 59 59 57 57 52 57 57 59 59 59 60 62 63 65 67 67 67 68 68 67 66 66 64 64 64 63 63 65 64 64 65 65 64 63 61 60 58 58 64 65 63 63 63 66 66 65 66 66 67 67 68 68 67 67
54 55 56 57 57 56 57 57 57 59 60 60 61 60 61 61 59 59 58 58 57 60 59 58 65 65 59 66 61 59 59 61 59 57 59 53 54 55 57 56 57 57 59 57 59 58 62 64 66 68 67 67 67 65 64 63 63 63 63 63 64 63 63 63 64 63 60 58 58 59 60 64 64 65 65 66 65 66 66 66 66 67 68 68 68
53 55 55 55 55 56 55 56 56 58 58 58 59 58 59 60 59 59 58 57 65 57 57 62 60 64 59 60 62 60 61 61 62 59 58 52 53 55 53 52 54 53 56 55 56 59 60 61 63 66 67 66 67 66 65 65 65 65 64 63 62 62 62 60 63 63 62 62 59 59 60 61 61 63 64 66 65 65 66 66 66 66 67 68 68
55 54 54 55 56 56 55 55 56 57 57 58 58 58 59 59 58 58 57 56 52 59 57 59 59 60 57 58 59 60 61 61 61 61 60 57 57 57 55 50 53 55 55 55 57 56 58 59 60 60 62 65 66 66 65 65 64 63 64 64 63 62 61 61 62 61 61 61 60 60 60 60 61 61 63 66 67 66 65 66 66 66 66 67 67